Time,TemperatureF,DewpointF,PressureIn,WindDirection,WindDirectionDegrees,WindSpeedMPH,WindSpeedGustMPH,Humidity,HourlyPrecipIn,Conditions,Clouds,dailyrainin,SoftwareType,DateUTC
2013-03-12 00:02:00,67.6,63.3,29.95,SSE,158,2.0,2.0,86,0.00,,,0.00,Wunderground v.1.15,2013-03-12 04:02:00,
2013-03-12 00:12:00,67.5,63.2,29.95,SSE,163,0.0,0.0,86,0.00,,,0.00,Wunderground v.1.15,2013-03-12 04:12:00,
2013-03-12 00:17:00,67.4,63.1,29.95,SE,130,1.0,1.0,86,0.00,,,0.00,Wunderground v.1.15,2013-03-12 04:17:00,
2013-03-12 00:22:00,67.4,63.1,29.95,South,171,1.0,1.0,86,0.00,,,0.00,Wunderground v.1.15,2013-03-12 04:22:00,
2013-03-12 00:32:00,67.3,63.0,29.95,SSE,163,1.0,1.0,86,0.00,,,0.00,Wunderground v.1.15,2013-03-12 04:32:00,
2013-03-12 00:37:00,67.2,62.9,29.95,SSE,157,1.0,3.0,86,0.00,,,0.00,Wunderground v.1.15,2013-03-12 04:37:00,
2013-03-12 00:42:00,67.3,63.0,29.95,SSE,164,2.0,2.0,86,0.00,,,0.00,Wunderground v.1.15,2013-03-12 04:42:00,
2013-03-12 00:52:00,67.2,62.9,29.95,SSE,157,1.0,1.0,86,0.00,,,0.00,Wunderground v.1.15,2013-03-12 04:52:00,
2013-03-12 00:57:00,67.2,62.9,29.95,SSE,148,2.0,4.0,86,0.00,,,0.00,Wunderground v.1.15,2013-03-12 04:57:00,
2013-03-12 01:02:00,67.2,63.2,29.94,SSE,163,3.0,10.0,87,0.00,,,0.00,Wunderground v.1.15,2013-03-12 05:02:00,
2013-03-12 01:12:00,67.2,63.2,29.94,SSE,152,5.0,10.0,87,0.00,,,0.00,Wunderground v.1.15,2013-03-12 05:12:00,
2013-03-12 01:22:00,67.3,63.0,29.93,SSE,155,6.0,6.0,86,0.00,,,0.00,Wunderground v.1.15,2013-03-12 05:22:00,
2013-03-12 01:27:00,67.3,63.0,29.93,SSE,154,6.0,8.0,86,0.00,,,0.00,Wunderground v.1.15,2013-03-12 05:27:00,
2013-03-12 01:37:00,67.4,63.1,29.92,SSE,163,5.0,10.0,86,0.00,,,0.00,Wunderground v.1.15,2013-03-12 05:37:00,
2013-03-12 01:47:00,67.5,63.2,29.92,SSE,153,6.0,11.0,86,0.00,,,0.00,Wunderground v.1.15,2013-03-12 05:47:00,
2013-03-12 01:57:00,67.4,63.1,29.92,SSE,147,6.0,12.0,86,0.00,,,0.00,Wunderground v.1.15,2013-03-12 05:57:00,
2013-03-12 02:07:00,67.5,63.2,29.92,SE,143,7.0,10.0,86,0.00,,,0.00,Wunderground v.1.15,2013-03-12 06:07:00,
2013-03-12 02:12:00,67.5,63.2,29.92,SSE,159,7.0,7.0,86,0.00,,,0.00,Wunderground v.1.15,2013-03-12 06:12:00,
2013-03-12 02:22:00,67.5,63.2,29.91,SSE,164,5.0,5.0,86,0.00,,,0.00,Wunderground v.1.15,2013-03-12 06:22:00,
2013-03-12 02:32:00,67.6,63.3,29.91,SSE,154,5.0,5.0,86,0.00,,,0.00,Wunderground v.1.15,2013-03-12 06:32:00,
2013-03-12 02:42:00,67.6,63.3,29.91,SSE,151,4.0,11.0,86,0.00,,,0.00,Wunderground v.1.15,2013-03-12 06:42:00,
2013-03-12 02:52:00,67.8,63.1,29.91,SSE,165,5.0,5.0,85,0.00,,,0.00,Wunderground v.1.15,2013-03-12 06:52:00,
2013-03-12 03:02:00,68.0,63.0,29.91,SSE,161,4.0,4.0,84,0.00,,,0.00,Wunderground v.1.15,2013-03-12 07:02:00,
2013-03-12 03:07:00,68.0,63.0,29.91,SSE,148,4.0,13.0,84,0.00,,,0.00,Wunderground v.1.15,2013-03-12 07:07:00,
2013-03-12 03:17:00,68.1,63.1,29.89,ESE,122,5.0,13.0,84,0.00,,,0.00,Wunderground v.1.15,2013-03-12 07:17:00,
2013-03-12 03:22:00,68.1,63.1,29.89,SSE,165,6.0,13.0,84,0.00,,,0.00,Wunderground v.1.15,2013-03-12 07:22:00,
2013-03-12 03:32:00,68.0,63.3,29.89,SSE,155,5.0,13.0,85,0.00,,,0.00,Wunderground v.1.15,2013-03-12 07:32:00,
2013-03-12 03:42:00,67.8,63.1,29.89,SSE,159,4.0,13.0,85,0.00,,,0.00,Wunderground v.1.15,2013-03-12 07:42:00,
2013-03-12 03:52:00,67.5,62.8,29.89,SSE,159,4.0,4.0,85,0.00,,,0.00,Wunderground v.1.15,2013-03-12 07:52:00,
2013-03-12 03:57:00,67.4,63.1,29.89,SSE,156,3.0,13.0,86,0.00,,,0.00,Wunderground v.1.15,2013-03-12 07:57:00,
2013-03-12 04:07:00,67.2,62.9,29.88,SSE,161,3.0,13.0,86,0.00,,,0.00,Wunderground v.1.15,2013-03-12 08:07:00,
2013-03-12 04:12:00,67.1,62.8,29.88,SE,140,3.0,4.0,86,0.00,,,0.00,Wunderground v.1.15,2013-03-12 08:12:00,
2013-03-12 04:22:00,66.9,62.9,29.88,SE,144,2.0,2.0,87,0.00,,,0.00,Wunderground v.1.15,2013-03-12 08:22:00,
2013-03-12 04:32:00,66.8,62.8,29.88,South,169,2.0,4.0,87,0.00,,,0.00,Wunderground v.1.15,2013-03-12 08:32:00,
2013-03-12 04:42:00,66.8,62.8,29.88,South,173,3.0,3.0,87,0.00,,,0.00,Wunderground v.1.15,2013-03-12 08:42:00,
2013-03-12 04:52:00,66.7,62.7,29.88,SSE,163,2.0,2.0,87,0.00,,,0.00,Wunderground v.1.15,2013-03-12 08:52:00,
2013-03-12 05:02:00,66.5,62.8,29.89,SSE,165,1.0,1.0,88,0.00,,,0.00,Wunderground v.1.15,2013-03-12 09:02:00,
2013-03-12 05:12:00,66.4,62.7,29.89,SSE,160,1.0,15.0,88,0.00,,,0.00,Wunderground v.1.15,2013-03-12 09:12:00,
2013-03-12 05:17:00,66.4,62.7,29.89,SSE,161,1.0,15.0,88,0.00,,,0.00,Wunderground v.1.15,2013-03-12 09:17:00,
2013-03-12 05:27:00,66.3,63.0,29.89,South,177,0.0,15.0,89,0.00,,,0.00,Wunderground v.1.15,2013-03-12 09:27:00,
2013-03-12 05:37:00,66.1,62.8,29.90,South,175,0.0,15.0,89,0.00,,,0.00,Wunderground v.1.15,2013-03-12 09:37:00,
2013-03-12 05:47:00,66.1,63.1,29.89,South,169,1.0,15.0,90,0.00,,,0.00,Wunderground v.1.15,2013-03-12 09:47:00,
2013-03-12 05:52:00,66.1,63.1,29.89,SE,145,1.0,1.0,90,0.00,,,0.00,Wunderground v.1.15,2013-03-12 09:52:00,
2013-03-12 06:02:00,66.2,63.2,29.89,SSE,161,0.0,15.0,90,0.00,,,0.00,Wunderground v.1.15,2013-03-12 10:02:00,
2013-03-12 06:12:00,66.4,63.4,29.89,SSE,166,3.0,3.0,90,0.00,,,0.00,Wunderground v.1.15,2013-03-12 10:12:00,
2013-03-12 06:22:00,66.6,63.6,29.89,SE,137,2.0,3.0,90,0.00,,,0.00,Wunderground v.1.15,2013-03-12 10:22:00,
2013-03-12 06:32:00,66.6,63.6,29.89,SSE,165,1.0,1.0,90,0.00,,,0.00,Wunderground v.1.15,2013-03-12 10:32:00,
2013-03-12 06:37:00,66.6,63.6,29.89,SSE,154,0.0,1.0,90,0.00,,,0.00,Wunderground v.1.15,2013-03-12 10:37:00,
2013-03-12 06:47:00,66.7,63.7,29.88,SSE,159,3.0,5.0,90,0.00,,,0.00,Wunderground v.1.15,2013-03-12 10:47:00,
2013-03-12 06:52:00,66.7,63.7,29.88,SE,144,3.0,6.0,90,0.00,,,0.00,Wunderground v.1.15,2013-03-12 10:52:00,
2013-03-12 07:02:00,67.0,64.0,29.87,SE,125,3.0,3.0,90,0.00,,,0.00,Wunderground v.1.15,2013-03-12 11:02:00,
2013-03-12 07:07:00,67.1,64.1,29.87,SSE,165,2.0,10.0,90,0.00,,,0.00,Wunderground v.1.15,2013-03-12 11:07:00,
2013-03-12 07:17:00,67.6,64.6,29.88,SSE,155,4.0,10.0,90,0.00,,,0.00,Wunderground v.1.15,2013-03-12 11:17:00,
2013-03-12 07:27:00,68.3,64.9,29.88,South,180,6.0,6.0,89,0.00,,,0.00,Wunderground v.1.15,2013-03-12 11:27:00,
2013-03-12 07:42:00,68.5,65.1,29.89,SE,142,5.0,10.0,89,0.00,,,0.00,Wunderground v.1.15,2013-03-12 11:42:00,
2013-03-12 07:52:00,68.5,65.4,29.90,SSE,163,5.0,10.0,90,0.00,,,0.00,Wunderground v.1.15,2013-03-12 11:52:00,
2013-03-12 07:57:00,68.5,65.4,29.90,South,171,5.0,10.0,90,0.00,,,0.00,Wunderground v.1.15,2013-03-12 11:57:00,
2013-03-12 08:07:00,68.6,65.5,29.90,South,173,4.0,10.0,90,0.00,,,0.00,Wunderground v.1.15,2013-03-12 12:07:00,
2013-03-12 08:17:00,68.7,65.6,29.91,South,184,3.0,6.0,90,0.00,,,0.00,Wunderground v.1.15,2013-03-12 12:17:00,
2013-03-12 08:27:00,68.8,65.7,29.91,SSE,168,4.0,4.0,90,0.00,,,0.00,Wunderground v.1.15,2013-03-12 12:27:00,
2013-03-12 08:32:00,68.9,65.8,29.92,SSE,165,4.0,6.0,90,0.00,,,0.00,Wunderground v.1.15,2013-03-12 12:32:00,
2013-03-12 08:42:00,69.0,66.3,29.92,SE,143,4.0,4.0,91,0.00,,,0.00,Wunderground v.1.15,2013-03-12 12:42:00,
2013-03-12 08:47:00,69.0,66.3,29.91,SSW,196,6.0,6.0,91,0.00,,,0.00,Wunderground v.1.15,2013-03-12 12:47:00,
2013-03-12 08:57:00,69.3,66.6,29.91,South,175,4.0,5.0,91,0.00,,,0.00,Wunderground v.1.15,2013-03-12 12:57:00,
2013-03-12 09:02:00,69.5,66.8,29.92,SSW,196,5.0,13.0,91,0.00,,,0.00,Wunderground v.1.15,2013-03-12 13:02:00,
2013-03-12 09:12:00,69.9,67.2,29.92,SSE,152,5.0,13.0,91,0.00,,,0.00,Wunderground v.1.15,2013-03-12 13:12:00,
2013-03-12 09:22:00,70.2,67.4,29.93,South,169,6.0,6.0,91,0.00,,,0.00,Wunderground v.1.15,2013-03-12 13:22:00,
2013-03-12 09:32:00,70.4,67.3,29.93,South,172,5.0,13.0,90,0.00,,,0.00,Wunderground v.1.15,2013-03-12 13:32:00,
2013-03-12 09:37:00,70.6,67.8,29.93,South,181,6.0,13.0,91,0.00,,,0.00,Wunderground v.1.15,2013-03-12 13:37:00,
2013-03-12 09:42:00,70.7,67.9,29.93,SSE,154,5.0,13.0,91,0.00,,,0.00,Wunderground v.1.15,2013-03-12 13:42:00,
2013-03-12 09:52:00,70.6,67.8,29.94,South,180,6.0,6.0,91,0.00,,,0.00,Wunderground v.1.15,2013-03-12 13:52:00,
2013-03-12 09:57:00,70.6,67.5,29.94,SSW,192,5.0,13.0,90,0.00,,,0.00,Wunderground v.1.15,2013-03-12 13:57:00,
2013-03-12 10:07:00,70.5,67.4,29.94,South,173,4.0,4.0,90,0.00,,,0.00,Wunderground v.1.15,2013-03-12 14:07:00,
2013-03-12 10:17:00,70.4,67.3,29.95,SSW,203,4.0,10.0,90,0.00,,,0.00,Wunderground v.1.15,2013-03-12 14:17:00,
2013-03-12 10:22:00,70.4,67.6,29.95,SSW,211,4.0,5.0,91,0.00,,,0.00,Wunderground v.1.15,2013-03-12 14:22:00,
2013-03-12 10:32:00,70.4,67.6,29.96,SSE,167,3.0,9.0,91,0.00,,,0.00,Wunderground v.1.15,2013-03-12 14:32:00,
2013-03-12 10:37:00,70.4,67.6,29.96,SSW,204,5.0,9.0,91,0.00,,,0.00,Wunderground v.1.15,2013-03-12 14:37:00,
2013-03-12 10:47:00,70.5,67.4,29.97,South,173,4.0,6.0,90,0.00,,,0.00,Wunderground v.1.15,2013-03-12 14:47:00,
2013-03-12 10:52:00,70.4,67.3,29.97,SSW,213,5.0,8.0,90,0.00,,,0.00,Wunderground v.1.15,2013-03-12 14:52:00,
2013-03-12 11:02:00,70.3,67.2,29.98,SW,225,3.0,15.0,90,0.00,,,0.00,Wunderground v.1.15,2013-03-12 15:02:00,
2013-03-12 11:12:00,70.2,67.4,29.98,SW,227,3.0,15.0,91,0.00,,,0.00,Wunderground v.1.15,2013-03-12 15:12:00,
2013-03-12 11:22:00,70.2,67.4,29.98,SW,233,3.0,3.0,91,0.00,,,0.00,Wunderground v.1.15,2013-03-12 15:22:00,
2013-03-12 11:32:00,69.9,67.2,29.99,SW,232,3.0,3.0,91,0.00,,,0.00,Wunderground v.1.15,2013-03-12 15:32:00,
2013-03-12 11:42:00,69.6,67.2,29.99,WSW,237,3.0,15.0,92,0.00,,,0.00,Wunderground v.1.15,2013-03-12 15:42:00,
2013-03-12 11:52:00,69.3,67.2,29.99,SW,227,2.0,15.0,93,0.00,,,0.00,Wunderground v.1.15,2013-03-12 15:52:00,
2013-03-12 12:02:00,69.7,67.9,29.98,SW,214,1.0,1.0,94,0.00,,,0.00,Wunderground v.1.15,2013-03-12 16:02:00,
2013-03-12 12:07:00,69.9,67.8,29.98,SSW,196,1.0,6.0,93,0.00,,,0.00,Wunderground v.1.15,2013-03-12 16:07:00,
2013-03-12 12:12:00,69.8,67.7,29.98,SW,220,4.0,5.0,93,0.00,,,0.00,Wunderground v.1.15,2013-03-12 16:12:00,
2013-03-12 12:22:00,69.7,67.6,29.98,SSW,198,4.0,4.0,93,0.00,,,0.00,Wunderground v.1.15,2013-03-12 16:22:00,
2013-03-12 12:27:00,69.5,67.1,29.98,SW,217,2.0,4.0,92,0.00,,,0.00,Wunderground v.1.15,2013-03-12 16:27:00,
2013-03-12 12:37:00,69.5,66.8,29.97,SW,218,4.0,6.0,91,0.00,,,0.00,Wunderground v.1.15,2013-03-12 16:37:00,
2013-03-12 12:47:00,69.8,66.7,29.97,SSW,213,4.0,7.0,90,0.00,,,0.00,Wunderground v.1.15,2013-03-12 16:47:00,
2013-03-12 12:57:00,70.5,67.7,29.97,SW,227,4.0,5.0,91,0.00,,,0.00,Wunderground v.1.15,2013-03-12 16:57:00,
2013-03-12 13:02:00,70.8,68.0,29.97,SW,228,5.0,5.0,91,0.00,,,0.00,Wunderground v.1.15,2013-03-12 17:02:00,
2013-03-12 13:12:00,71.2,68.1,29.97,SSW,201,6.0,17.0,90,0.00,,,0.00,Wunderground v.1.15,2013-03-12 17:12:00,
2013-03-12 13:22:00,71.5,68.1,29.96,SSW,192,6.0,17.0,89,0.00,,,0.00,Wunderground v.1.15,2013-03-12 17:22:00,
2013-03-12 13:32:00,71.7,68.0,29.95,South,184,6.0,6.0,88,0.00,,,0.00,Wunderground v.1.15,2013-03-12 17:32:00,
2013-03-12 13:37:00,72.4,68.0,29.95,SSW,210,5.0,12.0,86,0.00,,,0.00,Wunderground v.1.15,2013-03-12 17:37:00,
2013-03-12 13:47:00,72.5,67.4,29.95,SSW,209,7.0,17.0,84,0.00,,,0.00,Wunderground v.1.15,2013-03-12 17:47:00,
2013-03-12 13:57:00,72.4,67.3,29.95,SSW,213,5.0,17.0,84,0.00,,,0.00,Wunderground v.1.15,2013-03-12 17:57:00,
2013-03-12 14:02:00,72.6,67.5,29.95,SW,225,5.0,5.0,84,0.00,,,0.00,Wunderground v.1.15,2013-03-12 18:02:00,
2013-03-12 14:12:00,73.0,67.9,29.95,SSW,212,4.0,5.0,84,0.00,,,0.00,Wunderground v.1.15,2013-03-12 18:12:00,
2013-03-12 14:22:00,72.2,67.8,29.95,South,173,7.0,8.0,86,0.00,,,0.00,Wunderground v.1.15,2013-03-12 18:22:00,
2013-03-12 14:27:00,71.9,67.8,29.95,SW,236,7.0,8.0,87,0.00,,,0.00,Wunderground v.1.15,2013-03-12 18:27:00,
2013-03-12 14:32:00,71.6,67.5,29.95,SSW,200,7.0,7.0,87,0.00,,,0.00,Wunderground v.1.15,2013-03-12 18:32:00,
2013-03-12 14:42:00,71.1,67.4,29.95,SW,215,7.0,7.0,88,0.00,,,0.00,Wunderground v.1.15,2013-03-12 18:42:00,
2013-03-12 14:47:00,70.9,67.5,29.95,SSW,205,6.0,9.0,89,0.00,,,0.00,Wunderground v.1.15,2013-03-12 18:47:00,
2013-03-12 14:57:00,70.1,66.7,29.95,WSW,241,6.0,9.0,89,0.00,,,0.00,Wunderground v.1.15,2013-03-12 18:57:00,
2013-03-12 15:02:00,69.7,66.6,29.94,SW,232,7.0,7.0,90,0.00,,,0.00,Wunderground v.1.15,2013-03-12 19:02:00,
2013-03-12 15:07:00,69.7,67.3,29.94,SW,220,6.0,17.0,92,0.00,,,0.00,Wunderground v.1.15,2013-03-12 19:07:00,
2013-03-12 15:17:00,69.5,67.1,29.94,WSW,247,5.0,17.0,92,0.00,,,0.00,Wunderground v.1.15,2013-03-12 19:17:00,
2013-03-12 15:27:00,66.9,63.9,29.94,West,276,7.0,17.0,90,0.00,,,0.00,Wunderground v.1.15,2013-03-12 19:27:00,
2013-03-12 15:32:00,65.9,62.9,29.95,NW,304,7.0,7.0,90,0.00,,,0.00,Wunderground v.1.15,2013-03-12 19:32:00,
2013-03-12 15:37:00,65.5,62.8,29.95,North,350,8.0,14.0,91,0.00,,,0.00,Wunderground v.1.15,2013-03-12 19:37:00,
2013-03-12 15:47:00,65.1,62.4,29.94,WNW,302,7.0,17.0,91,0.00,,,0.00,Wunderground v.1.15,2013-03-12 19:47:00,
2013-03-12 15:57:00,65.3,62.6,29.94,NNW,328,5.0,17.0,91,0.00,,,0.00,Wunderground v.1.15,2013-03-12 19:57:00,
2013-03-12 16:02:00,65.4,62.7,29.94,NW,325,5.0,17.0,91,0.00,,,0.00,Wunderground v.1.15,2013-03-12 20:02:00,
2013-03-12 16:12:00,65.0,62.0,29.94,NW,319,7.0,7.0,90,0.00,,,0.00,Wunderground v.1.15,2013-03-12 20:12:00,
2013-03-12 16:22:00,65.0,62.3,29.94,NNW,335,6.0,6.0,91,0.00,,,0.00,Wunderground v.1.15,2013-03-12 20:22:00,
2013-03-12 16:27:00,65.1,62.4,29.94,NW,314,5.0,6.0,91,0.00,,,0.00,Wunderground v.1.15,2013-03-12 20:27:00,
2013-03-12 16:32:00,65.0,62.3,29.94,NNW,330,4.0,4.0,91,0.00,,,0.00,Wunderground v.1.15,2013-03-12 20:32:00,
2013-03-12 16:42:00,64.8,62.4,29.94,NNW,331,5.0,5.0,92,0.00,,,0.00,Wunderground v.1.15,2013-03-12 20:42:00,
2013-03-12 16:52:00,65.0,62.6,29.94,NW,315,2.0,2.0,92,0.00,,,0.00,Wunderground v.1.15,2013-03-12 20:52:00,
2013-03-12 17:02:00,65.2,62.8,29.94,WNW,301,3.0,18.0,92,0.00,,,0.00,Wunderground v.1.15,2013-03-12 21:02:00,
2013-03-12 17:12:00,65.4,62.1,29.94,NNW,348,6.0,6.0,89,0.00,,,0.00,Wunderground v.1.15,2013-03-12 21:12:00,
2013-03-12 17:22:00,65.9,62.2,29.93,NNW,328,5.0,5.0,88,0.00,,,0.00,Wunderground v.1.15,2013-03-12 21:22:00,
2013-03-12 17:37:00,66.0,62.0,29.93,NNW,332,5.0,18.0,87,0.00,,,0.00,Wunderground v.1.15,2013-03-12 21:37:00,
2013-03-12 17:47:00,65.9,61.6,29.93,NW,313,5.0,18.0,86,0.00,,,0.00,Wunderground v.1.15,2013-03-12 21:47:00,
2013-03-12 17:57:00,66.1,61.8,29.93,NW,319,4.0,18.0,86,0.00,,,0.00,Wunderground v.1.15,2013-03-12 21:57:00,
2013-03-12 18:07:00,66.0,61.4,29.93,NNW,337,5.0,5.0,85,0.00,,,0.00,Wunderground v.1.15,2013-03-12 22:07:00,
2013-03-12 18:17:00,65.9,61.6,29.94,NNW,333,4.0,5.0,86,0.00,,,0.00,Wunderground v.1.15,2013-03-12 22:17:00,
2013-03-12 18:32:00,65.7,61.4,29.94,North,5,4.0,4.0,86,0.00,,,0.00,Wunderground v.1.15,2013-03-12 22:32:00,
2013-03-12 18:42:00,65.6,61.6,29.94,NNW,332,3.0,5.0,87,0.00,,,0.00,Wunderground v.1.15,2013-03-12 22:42:00,
2013-03-12 18:57:00,65.1,61.1,29.94,NNW,335,5.0,6.0,87,0.00,,,0.00,Wunderground v.1.15,2013-03-12 22:57:00,
2013-03-12 19:07:00,64.8,60.5,29.95,NNW,327,5.0,12.0,86,0.00,,,0.00,Wunderground v.1.15,2013-03-12 23:07:00,
2013-03-12 19:17:00,64.6,60.3,29.96,NNW,328,5.0,5.0,86,0.00,,,0.00,Wunderground v.1.15,2013-03-12 23:17:00,
2013-03-12 19:27:00,64.4,60.1,29.96,NNW,336,5.0,12.0,86,0.00,,,0.00,Wunderground v.1.15,2013-03-12 23:27:00,
2013-03-12 19:32:00,64.3,60.0,29.96,NNW,327,5.0,12.0,86,0.00,,,0.00,Wunderground v.1.15,2013-03-12 23:32:00,
2013-03-12 19:37:00,64.3,60.0,29.96,NW,305,4.0,12.0,86,0.00,,,0.00,Wunderground v.1.15,2013-03-12 23:37:00,
2013-03-12 19:47:00,64.0,59.4,29.97,NW,323,5.0,12.0,85,0.00,,,0.00,Wunderground v.1.15,2013-03-12 23:47:00,
2013-03-12 19:57:00,63.8,59.2,29.97,NNW,329,5.0,12.0,85,0.00,,,0.00,Wunderground v.1.15,2013-03-12 23:57:00,
2013-03-12 20:07:00,63.7,59.1,29.97,NW,312,5.0,12.0,85,0.00,,,0.00,Wunderground v.1.15,2013-03-13 00:07:00,
2013-03-12 20:17:00,63.5,58.9,29.98,NNW,336,5.0,8.0,85,0.00,,,0.00,Wunderground v.1.15,2013-03-13 00:17:00,
2013-03-12 20:22:00,63.5,58.9,29.98,NW,320,5.0,7.0,85,0.00,,,0.00,Wunderground v.1.15,2013-03-13 00:22:00,
2013-03-12 20:37:00,62.9,58.6,29.98,NNW,331,4.0,5.0,86,0.00,,,0.00,Wunderground v.1.15,2013-03-13 00:37:00,
2013-03-12 20:42:00,62.7,58.5,29.98,WNW,300,4.0,4.0,86,0.00,,,0.00,Wunderground v.1.15,2013-03-13 00:42:00,
2013-03-12 20:47:00,62.5,58.3,29.99,NNW,336,4.0,4.0,86,0.00,,,0.00,Wunderground v.1.15,2013-03-13 00:47:00,
2013-03-12 20:57:00,62.2,58.3,29.99,NW,323,5.0,5.0,87,0.00,,,0.00,Wunderground v.1.15,2013-03-13 00:57:00,
2013-03-12 21:02:00,61.9,57.7,30.00,NW,321,5.0,5.0,86,0.00,,,0.00,Wunderground v.1.15,2013-03-13 01:02:00,
2013-03-12 21:12:00,61.7,57.1,30.00,NNW,327,5.0,5.0,85,0.00,,,0.00,Wunderground v.1.15,2013-03-13 01:12:00,
2013-03-12 21:17:00,61.6,57.0,30.00,NW,313,5.0,7.0,85,0.00,,,0.00,Wunderground v.1.15,2013-03-13 01:17:00,
2013-03-12 21:27:00,61.4,56.8,30.00,WNW,298,6.0,6.0,85,0.00,,,0.00,Wunderground v.1.15,2013-03-13 01:27:00,
2013-03-12 21:32:00,61.3,56.8,30.00,NW,306,6.0,6.0,85,0.00,,,0.00,Wunderground v.1.15,2013-03-13 01:32:00,
2013-03-12 21:42:00,61.2,56.7,30.00,NW,324,5.0,11.0,85,0.00,,,0.00,Wunderground v.1.15,2013-03-13 01:42:00,
2013-03-12 21:47:00,61.1,56.6,30.00,NNW,327,5.0,11.0,85,0.00,,,0.00,Wunderground v.1.15,2013-03-13 01:47:00,
2013-03-12 21:57:00,61.0,56.8,30.00,NNW,340,4.0,11.0,86,0.00,,,0.00,Wunderground v.1.15,2013-03-13 01:57:00,
2013-03-12 22:07:00,60.9,56.7,30.01,WNW,302,4.0,4.0,86,0.00,,,0.00,Wunderground v.1.15,2013-03-13 02:07:00,
2013-03-12 22:17:00,60.6,56.4,30.01,NW,321,1.0,3.0,86,0.00,,,0.00,Wunderground v.1.15,2013-03-13 02:17:00,
2013-03-12 22:27:00,60.5,56.0,30.01,NNW,339,1.0,1.0,85,0.00,,,0.00,Wunderground v.1.15,2013-03-13 02:27:00,
2013-03-12 22:32:00,60.4,55.5,30.01,NNW,348,1.0,1.0,84,0.00,,,0.00,Wunderground v.1.15,2013-03-13 02:32:00,
2013-03-12 22:42:00,60.5,55.3,30.01,North,9,3.0,3.0,83,0.00,,,0.00,Wunderground v.1.15,2013-03-13 02:42:00,
2013-03-12 22:52:00,60.6,54.4,30.02,NNW,338,4.0,4.0,80,0.00,,,0.00,Wunderground v.1.15,2013-03-13 02:52:00,
2013-03-12 22:57:00,60.5,54.3,30.02,NNW,336,4.0,4.0,80,0.00,,,0.00,Wunderground v.1.15,2013-03-13 02:57:00,
2013-03-12 23:02:00,60.5,54.0,30.02,NNW,329,4.0,12.0,79,0.00,,,0.00,Wunderground v.1.15,2013-03-13 03:02:00,
2013-03-12 23:12:00,60.5,54.0,30.02,NNW,337,5.0,5.0,79,0.00,,,0.00,Wunderground v.1.15,2013-03-13 03:12:00,
2013-03-12 23:22:00,60.3,53.8,30.02,North,355,5.0,5.0,79,0.00,,,0.00,Wunderground v.1.15,2013-03-13 03:22:00,
2013-03-12 23:32:00,60.1,53.9,30.03,NNW,346,5.0,5.0,80,0.00,,,0.00,Wunderground v.1.15,2013-03-13 03:32:00,
2013-03-12 23:37:00,59.9,54.1,30.03,NW,323,4.0,12.0,81,0.00,,,0.00,Wunderground v.1.15,2013-03-13 03:37:00,
2013-03-12 23:42:00,59.8,54.3,30.03,NNW,348,4.0,4.0,82,0.00,,,0.00,Wunderground v.1.15,2013-03-13 03:42:00,
2013-03-12 23:52:00,59.7,54.5,30.03,North,350,3.0,3.0,83,0.00,,,0.00,Wunderground v.1.15,2013-03-13 03:52:00,